TimeCDT,TemperatureF,Dew PointF,Humidity,Sea Level PressureIn,VisibilityMPH,Wind Direction,Wind SpeedMPH,Gust SpeedMPH,PrecipitationIn,Events,Conditions,WindDirDegrees,DateUTC
12:58 AM,70.2,61.7,74,29.80,10.0,NW,29.9,39.1,N/A,,Mostly Cloudy,310,2013-10-03 05:58:00
1:03 AM,69.8,60.8,73,29.83,10.0,WNW,17.3,39.1,N/A,,Mostly Cloudy,290,2013-10-03 06:03:00
1:08 AM,69.8,60.8,73,29.84,10.0,NW,17.3,32.2,N/A,Thunderstorm,Mostly Cloudy,310,2013-10-03 06:08:00
1:18 AM,68.0,59.0,73,29.84,10.0,NW,11.5,-,N/A,Thunderstorm,Overcast,310,2013-10-03 06:18:00
1:33 AM,66.2,59.0,78,29.84,10.0,NNW,12.7,-,N/A,,Overcast,340,2013-10-03 06:33:00
1:58 AM,66.9,60.1,79,29.83,10.0,NNW,13.8,-,N/A,,Overcast,330,2013-10-03 06:58:00
2:06 AM,66.2,60.8,83,29.86,10.0,WNW,15.0,-,N/A,Rain-Thunderstorm,Light Rain Showers,290,2013-10-03 07:06:00
2:10 AM,66.2,60.8,83,29.87,6.0,West,15.0,-,N/A,Rain-Thunderstorm,Light Thunderstorms and Rain,280,2013-10-03 07:10:00
2:17 AM,64.4,62.6,94,29.87,5.0,West,13.8,-,N/A,Rain-Thunderstorm,Heavy Thunderstorms and Rain,280,2013-10-03 07:17:00
2:22 AM,64.4,62.6,94,29.86,4.0,WNW,13.8,-,N/A,Rain-Thunderstorm,Heavy Thunderstorms and Rain,300,2013-10-03 07:22:00
2:30 AM,62.6,62.6,100,29.86,4.0,WNW,11.5,-,N/A,Rain,Heavy Rain,300,2013-10-03 07:30:00
2:36 AM,62.6,62.6,100,29.86,5.0,WNW,10.4,-,N/A,Rain,Rain,300,2013-10-03 07:36:00
2:41 AM,62.6,62.6,100,29.86,8.0,NW,8.1,-,N/A,Rain,Light Rain,310,2013-10-03 07:41:00
2:55 AM,62.6,62.6,100,29.84,9.0,NW,8.1,-,N/A,Rain,Light Rain,310,2013-10-03 07:55:00
2:58 AM,63.0,62.6,99,29.83,10.0,NW,6.9,-,0.11,Rain,Light Rain,310,2013-10-03 07:58:00
3:48 AM,62.6,62.6,100,29.86,6.0,West,8.1,-,N/A,Rain-Thunderstorm,Heavy Rain,280,2013-10-03 08:48:00
3:53 AM,62.6,62.6,100,29.86,5.0,WNW,11.5,-,N/A,Rain,Heavy Rain,290,2013-10-03 08:53:00
3:58 AM,62.8,62.4,99,29.85,5.0,WNW,10.4,-,0.06,Rain,Heavy Rain,290,2013-10-03 08:58:00
4:04 AM,62.6,62.6,100,29.87,4.0,Variable,2.3,-,N/A,Rain,Heavy Rain,0,2013-10-03 09:04:00
4:11 AM,62.6,62.6,100,29.87,3.0,Calm,Calm,-,N/A,Rain,Heavy Rain,0,2013-10-03 09:11:00
4:14 AM,62.6,62.6,100,29.86,3.0,NE,1.2,-,N/A,Rain-Thunderstorm,Heavy Thunderstorms and Rain,40,2013-10-03 09:14:00
4:29 AM,62.6,62.6,100,29.86,4.0,SW,5.8,-,N/A,Rain-Thunderstorm,Rain,230,2013-10-03 09:29:00
4:34 AM,62.6,62.6,100,29.86,5.0,West,5.8,-,N/A,Rain,Rain,260,2013-10-03 09:34:00
4:45 AM,62.6,62.6,100,29.85,4.0,West,4.6,-,N/A,Rain-Thunderstorm,Heavy Thunderstorms and Rain,280,2013-10-03 09:45:00
4:50 AM,62.6,62.6,100,29.84,5.0,WNW,4.6,-,N/A,Rain-Thunderstorm,Heavy Thunderstorms and Rain,290,2013-10-03 09:50:00
4:55 AM,62.6,62.6,100,29.85,5.0,West,4.6,-,N/A,Rain-Thunderstorm,Thunderstorms and Rain,270,2013-10-03 09:55:00
4:58 AM,62.4,62.2,99,29.84,5.0,West,4.6,-,0.18,Rain-Thunderstorm,Thunderstorms and Rain,260,2013-10-03 09:58:00
5:00 AM,62.6,62.6,100,29.85,5.0,West,4.6,-,N/A,Rain,Rain,270,2013-10-03 10:00:00
5:05 AM,62.6,62.6,100,29.85,6.0,WSW,4.6,-,N/A,Rain-Thunderstorm,Rain,250,2013-10-03 10:05:00
5:15 AM,62.6,62.6,100,29.85,4.0,South,2.3,-,N/A,Rain-Thunderstorm,Heavy Rain,190,2013-10-03 10:15:00
5:40 AM,62.6,60.8,94,29.80,6.0,SE,4.6,-,N/A,Rain,Rain,130,2013-10-03 10:40:00
5:58 AM,62.1,61.7,99,29.79,8.0,SSE,3.5,-,0.18,Rain,Light Rain,150,2013-10-03 10:58:00
6:13 AM,60.8,60.8,100,29.79,7.0,SSE,4.6,-,N/A,Rain,Rain,150,2013-10-03 11:13:00
6:23 AM,62.6,60.8,94,29.79,9.0,SE,4.6,-,N/A,Rain,Light Rain,130,2013-10-03 11:23:00
6:30 AM,60.8,60.8,100,29.80,10.0,Calm,Calm,-,N/A,,Scattered Clouds,0,2013-10-03 11:30:00
6:58 AM,62.8,61.5,96,29.80,10.0,SSE,6.9,-,0.04,,Clear,150,2013-10-03 11:58:00
7:22 AM,62.6,60.8,94,29.81,10.0,WNW,8.1,-,N/A,,Light Drizzle,300,2013-10-03 12:22:00
7:31 AM,64.4,59.0,83,29.80,10.0,SSW,8.1,-,N/A,,Clear,200,2013-10-03 12:31:00
7:55 AM,65.1,59.4,82,29.76,10.0,South,9.2,-,N/A,,Mostly Cloudy,180,2013-10-03 12:55:00
7:58 AM,65.1,59.4,82,29.78,10.0,South,9.2,-,0.00,,Clear,190,2013-10-03 12:58:00
8:55 AM,66.2,59.2,78,29.73,10.0,SW,4.6,-,N/A,,Overcast,230,2013-10-03 13:55:00
8:56 AM,66.2,59.0,78,29.76,10.0,Variable,3.5,-,N/A,,Partly Cloudy,0,2013-10-03 13:56:00
9:55 AM,67.6,60.3,77,29.75,10.0,Variable,3.5,-,N/A,,Mostly Cloudy,0,2013-10-03 14:55:00
9:56 AM,68.0,60.8,78,29.78,10.0,SSW,2.3,-,N/A,,Clear,210,2013-10-03 14:56:00
10:35 AM,69.8,60.8,73,29.78,10.0,South,1.2,-,N/A,Rain,Light Rain,180,2013-10-03 15:35:00
10:45 AM,69.8,60.8,73,29.78,10.0,NW,3.5,-,N/A,,Clear,310,2013-10-03 15:45:00
10:54 AM,71.6,60.8,69,29.78,10.0,WNW,1.2,-,N/A,,Light Drizzle,300,2013-10-03 15:54:00
10:55 AM,53.8,48.4,82,29.88,10.0,SE,5.8,-,N/A,,Mostly Cloudy,140,2013-10-03 15:55:00
10:56 AM,71.6,60.8,69,29.78,10.0,Calm,Calm,-,N/A,,Light Drizzle,350,2013-10-03 15:56:00
11:03 AM,71.6,60.8,69,29.78,10.0,Variable,1.2,-,N/A,,Clear,0,2013-10-03 16:03:00
11:09 AM,73.4,62.6,69,29.78,10.0,East,2.3,-,N/A,Rain,Rain,80,2013-10-03 16:09:00
11:26 AM,73.4,60.8,65,29.77,10.0,Calm,Calm,-,N/A,,Clear,310,2013-10-03 16:26:00
11:27 AM,73.4,60.8,65,29.77,10.0,WSW,1.2,-,N/A,Rain,Light Rain,250,2013-10-03 16:27:00
11:32 AM,73.4,60.8,65,29.77,10.0,Calm,Calm,-,N/A,,Clear,340,2013-10-03 16:32:00
11:35 AM,73.4,60.8,65,29.77,10.0,Calm,Calm,-,N/A,Rain,Light Rain,340,2013-10-03 16:35:00
11:37 AM,73.4,60.8,65,29.77,10.0,Variable,1.2,-,N/A,,Clear,0,2013-10-03 16:37:00
11:40 AM,73.4,60.8,65,29.77,10.0,Variable,1.2,-,N/A,Rain,Light Rain,0,2013-10-03 16:40:00
11:52 AM,75.2,60.8,61,29.76,10.0,Variable,4.6,-,N/A,,Clear,0,2013-10-03 16:52:00
11:56 AM,75.2,60.8,61,29.76,10.0,SW,4.6,-,N/A,,Clear,220,2013-10-03 16:56:00
12:56 PM,78.8,62.6,57,29.76,10.0,ESE,4.6,-,N/A,,Clear,120,2013-10-03 17:56:00
1:58 PM,80.2,64.2,58,29.72,10.0,Variable,2.3,-,N/A,,Clear,0,2013-10-03 18:58:00
2:58 PM,82.9,65.5,55,29.71,10.0,South,15.0,-,N/A,,Mostly Cloudy,180,2013-10-03 19:58:00
3:58 PM,79.7,66.2,63,29.73,10.0,SSW,11.5,-,N/A,,Scattered Clouds,200,2013-10-03 20:58:00
4:58 PM,79.0,67.5,68,29.73,10.0,SSE,5.8,-,N/A,,Scattered Clouds,160,2013-10-03 21:58:00
5:23 PM,78.8,68.0,69,29.74,10.0,SE,4.6,-,N/A,,Mostly Cloudy,140,2013-10-03 22:23:00
5:33 PM,78.8,68.0,69,29.75,10.0,East,3.5,-,N/A,,Partly Cloudy,100,2013-10-03 22:33:00
5:38 PM,78.8,68.0,69,29.75,10.0,East,3.5,-,N/A,,Scattered Clouds,80,2013-10-03 22:38:00
5:39 PM,78.8,69.8,74,29.75,10.0,Variable,2.3,-,N/A,Rain,Light Rain,0,2013-10-03 22:39:00
5:49 PM,77.0,68.0,74,29.75,2.5,NE,4.6,-,N/A,Rain,Light Rain,50,2013-10-03 22:49:00
5:52 PM,77.0,66.2,69,29.75,2.5,NE,5.8,-,N/A,,Haze,40,2013-10-03 22:52:00
5:57 PM,77.0,66.2,69,29.74,10.0,NE,3.5,-,N/A,,Mostly Cloudy,50,2013-10-03 22:57:00
5:58 PM,77.0,66.0,69,29.74,10.0,NE,3.5,-,0.00,,Mostly Cloudy,50,2013-10-03 22:58:00
6:34 PM,73.4,66.2,78,29.74,10.0,ENE,3.5,-,N/A,Rain,Light Rain,60,2013-10-03 23:34:00
6:44 PM,73.4,66.2,78,29.74,10.0,North,4.6,-,N/A,,Partly Cloudy,360,2013-10-03 23:44:00
6:58 PM,73.0,66.6,80,29.74,10.0,ENE,5.8,-,0.00,,Partly Cloudy,60,2013-10-03 23:58:00
7:58 PM,71.8,63.9,76,29.75,10.0,ENE,5.8,-,N/A,,Clear,60,2013-10-04 00:58:00
8:58 PM,71.6,64.0,77,29.75,10.0,Calm,Calm,-,N/A,,Scattered Clouds,0,2013-10-04 01:58:00
9:58 PM,70.9,64.6,80,29.76,10.0,Calm,Calm,-,N/A,Thunderstorm,Thunderstorm,0,2013-10-04 02:58:00
10:02 PM,69.8,64.4,83,29.75,10.0,Calm,Calm,-,N/A,Thunderstorm,Thunderstorm,0,2013-10-04 03:02:00
10:12 PM,69.8,64.4,83,29.75,10.0,Calm,Calm,-,N/A,Rain-Thunderstorm,Light Thunderstorms and Rain,0,2013-10-04 03:12:00
10:20 PM,69.8,64.4,83,29.75,5.0,North,1.2,-,N/A,Rain-Thunderstorm,Light Thunderstorms and Rain,10,2013-10-04 03:20:00
11:31 PM,69.8,68.0,94,29.72,0.8,North,24.2,24.2,N/A,Rain-Thunderstorm,Heavy Thunderstorms and Rain,350,2013-10-04 04:31:00
11:36 PM,68.0,64.4,88,29.70,1.0,NNW,33.4,42.6,N/A,Rain-Thunderstorm,Heavy Thunderstorms and Rain,330,2013-10-04 04:36:00
11:40 PM,66.2,60.8,83,29.71,1.2,NW,38.0,43.7,N/A,Rain-Thunderstorm,Heavy Thunderstorms and Rain,310,2013-10-04 04:40:00
11:45 PM,64.4,60.8,88,29.75,0.8,West,40.3,48.3,N/A,Rain-Thunderstorm,Heavy Thunderstorms and Rain,270,2013-10-04 04:45:00
11:50 PM,62.6,60.8,94,29.79,0.8,West,31.1,51.8,N/A,Rain-Thunderstorm,Heavy Thunderstorms and Rain,260,2013-10-04 04:50:00
11:58 PM,60.8,60.8,100,29.75,0.2,NW,20.7,41.4,1.42,Fog-Rain-Thunderstorm,Heavy Thunderstorms and Rain,310,2013-10-04 04:58:00